Location: Anjeux
(47.8815°N, 6.2076°E)
Time: 21:04:50
(UTC+00:00)

Envisat - Pass Details

Date: 05 March 2021
Orbit: 764 x 766 km, 98.1° (Epoch: 22 April)

Event Time Altitude Azimuth Distance (km) Brightness Sun altitude
Rises 05:22:52 0° 14° (NNE) 3,246 6.4 -8.4°
Reaches altitude 10° 05:25:11 10° 15° (NNE) 2,315 5.7 -8.0°
Maximum altitude 05:30:18 86° 104° (ESE) 775 3.1 -7.2°
Drops below altitude 10° 05:35:23 10° 194° (SSW) 2,296 5.4 -6.3°
Sets 05:37:40 0° 194° (SSW) 3,218 6.1 -5.9°
